Location: Oak Glen
(34.0495°N, 116.9470°E)
Time: 05:08:57
(UTC-08:00)

Vanguard 1 - All Passes

Search period start: 22 February 2018 00:00
Search period end: 04 March 2018 00:00
Orbit: 650 x 3833 km, 34.2° (Epoch: 21 February)

Date Brightness Start Highest point End Pass type
(mag) Time Alt. Az. Time Alt. Az. Time Alt. Az.
22 Feb - 00:48:27 10° W 00:58:47 88° N 01:04:31 10° E daylight
22 Feb - 03:12:58 10° W 03:19:11 53° SSW 03:23:35 10° SE visible
22 Feb - 17:58:26 10° S 18:10:46 18° SE 18:20:35 10° ESE daylight
22 Feb - 20:17:22 10° SW 20:35:15 45° SSE 20:45:46 10° E daylight
22 Feb - 22:43:13 10° WSW 22:58:17 78° SSE 23:06:04 10° E daylight
23 Feb - 01:10:05 10° W 01:19:53 90° N 01:25:25 10° E daylight
23 Feb - 03:34:21 10° W 03:39:57 38° SSW 03:44:07 10° SE visible
23 Feb - 18:16:30 10° S 18:32:13 25° SE 18:43:50 10° E daylight
23 Feb - 20:38:03 10° SW 20:56:35 54° SSE 21:07:00 10° E daylight
23 Feb - 23:04:56 10° WSW 23:19:29 86° S 23:26:59 10° E daylight
24 Feb - 01:31:39 10° W 01:40:57 83° SSW 01:46:18 10° ESE daylight
24 Feb - 03:55:57 10° W 04:00:37 25° SW 04:04:20 10° SSE visible
24 Feb - 18:35:37 10° SSW 18:53:38 33° SSE 19:06:06 10° E daylight
24 Feb - 20:59:08 10° SW 21:17:53 64° SSE 21:28:06 10° E daylight
24 Feb - 23:26:44 10° W 23:40:41 90° N 23:47:55 10° E daylight
25 Feb - 01:53:11 10° W 02:01:56 71° SSW 02:07:06 10° ESE daylight
25 Feb - 04:17:59 10° WSW 04:21:12 16° SW 04:23:59 10° S visible
25 Feb - 16:39:56 10° SSE 16:50:03 15° SE 16:59:01 10° ESE daylight
25 Feb - 18:55:26 10° SSW 19:15:01 41° SSE 19:27:52 10° E daylight
25 Feb - 21:20:31 10° WSW 21:39:11 73° SSE 21:49:07 10° E daylight
25 Feb - 23:48:34 10° W 00:01:54 88° N 00:08:50 10° E daylight
26 Feb - 02:14:42 10° W 02:22:48 55° SSW 02:27:48 10° SE daylight
26 Feb - 16:56:35 10° S 17:11:27 21° SE 17:23:47 10° E daylight
26 Feb - 19:15:46 10° SW 19:36:24 50° SSE 19:49:19 10° E daylight
26 Feb - 21:42:09 10° WSW 22:00:30 81° SSE 22:10:06 10° E daylight
27 Feb - 00:10:23 10° W 00:23:04 89° SSW 00:29:44 10° E daylight
27 Feb - 02:36:15 10° W 02:43:33 40° SSW 02:48:17 10° SE visible
27 Feb - 17:14:59 10° SSW 17:32:46 29° SE 17:46:49 10° E daylight
27 Feb - 19:36:31 10° SW 19:57:46 59° SSE 20:10:33 10° E daylight
27 Feb - 22:03:58 10° WSW 22:21:49 87° S 22:31:04 10° E daylight
28 Feb - 00:32:08 10° W 00:44:12 83° SSW 00:50:37 10° ESE daylight
28 Feb - 02:57:57 10° W 03:04:09 28° SW 03:08:28 10° SSE visible
28 Feb - 17:34:16 10° SSW 17:54:05 37° SE 18:09:03 10° E daylight
28 Feb - 19:57:38 10° SW 20:19:10 68° SSE 20:31:42 10° E daylight
28 Feb - 22:25:54 10° W 22:43:09 89° N 22:52:02 10° E daylight
01 Mar - 00:53:49 10° W 01:05:14 72° SSW 01:11:24 10° ESE daylight
01 Mar - 03:20:04 10° W 03:24:37 18° SW 03:28:08 10° S visible
01 Mar - 15:38:33 10° SSE 15:50:26 16° SE 16:01:32 10° ESE daylight
01 Mar - 17:54:10 10° SSW 18:15:25 45° SSE 18:30:49 10° E daylight
01 Mar - 20:19:03 10° WSW 20:40:34 76° SSE 20:52:46 10° E daylight
01 Mar - 22:47:52 10° W 23:04:29 89° N 23:12:59 10° E daylight
02 Mar - 01:15:29 10° WNW 01:26:08 58° SSW 01:32:04 10° SE daylight
02 Mar - 03:43:46 10° WSW 03:45:00 11° SW 03:46:08 10° SW visible
02 Mar - 15:55:42 10° S 16:11:37 23° SE 16:25:59 10° E daylight
02 Mar - 18:14:32 10° SW 18:36:45 54° SSE 18:52:18 10° E daylight
02 Mar - 20:40:44 10° WSW 21:02:00 83° SSE 21:13:49 10° E daylight
02 Mar - 23:09:49 10° W 23:25:46 89° S 23:33:56 10° E daylight
03 Mar - 01:37:11 10° W 01:46:52 44° SSW 01:52:32 10° SE daylight
03 Mar - 16:14:17 10° SSW 16:32:46 31° SE 16:48:59 10° E daylight
03 Mar - 18:35:17 10° SW 18:58:10 63° SSE 19:13:36 10° ENE daylight
03 Mar - 21:02:35 10° WSW 21:23:27 88° S 21:34:51 10° E daylight
03 Mar - 23:31:43 10° W 23:46:58 83° SSW 23:54:49 10° ESE daylight
